{"data":{"norad_id":59683,"intl_designator":"2024-086B","name":"STARLINK-32080","alt_names":[],"object_type":"PAYLOAD","status":"ACTIVE","operator":null,"country":"US","launch_date":"2024-05-08","launch_site_code":"AFETR","launch_vehicle":null,"mission":null,"orbit_class":"UNKNOWN","rcs_meters":null,"size_class":null,"mass_kg":null,"dimensions":null,"purposes":["comms"],"wikipedia_slug":null,"has_3d_model":false,"image_url":null,"decayed_at":null,"tle_current":{"epoch":"2026-09-21T16:45:28.094112Z","epoch_age_seconds":67760,"freshness":"FRESH","line1":"1 59683U 24086B   26264.69824183  .00000800  00000+0  38588-4 0  9995","line2":"2 59683  43.0052  36.8429 0001385 267.1953  92.8740 15.27581290134052","mean_motion":15.2758129,"eccentricity":0.0001385,"inclination_deg":43.0052,"raan_deg":36.8429,"arg_perigee_deg":267.1953,"mean_anomaly_deg":92.874,"bstar":3.8588e-5,"rev_number":13405,"period_min":94.266669107999,"perigee_km":482.09495957898,"apogee_km":483.99550705761,"semimajor_km":6861.1822333183,"source":"CELESTRAK","updated_at":"2026-09-22T09:00:49.031363Z"}}}